owner,sensor,date,latitude,longitude,vertical_datum,sea_water_practical_salinity,qcFlag 
DISL,ioos:station:DISL:KATA:1,2012-04-01T00:00:00Z,30.2583,-88.2131,4.146,18.95,1111122 
DISL,ioos:station:DISL:KATA:1,2012-04-01T00:30:00Z,30.2583,-88.2131,4.147,18.88,1111122 
DISL,ioos:station:DISL:KATA:1,2012-04-01T01:00:00Z,30.2583,-88.2131,4.133,19.59,1111122 
DISL,ioos:station:DISL:KATA:1,2012-04-01T01:30:00Z,30.2583,-88.2131,4.116,18.99,1111122 
DISL,ioos:station:DISL:KATA:1,2012-04-01T02:00:00Z,30.2583,-88.2131,4.106,18.02,1111122 
DISL,ioos:station:DISL:KATA:1,2012-04-01T02:30:00Z,30.2583,-88.2131,4.081,18.68,1111122 
DISL,ioos:station:DISL:KATA:1,2012-04-01T03:00:00Z,30.2583,-88.2131,4.043,19.02,1111122 
DISL,ioos:station:DISL:KATA:1,2012-04-01T03:30:00Z,30.2583,-88.2131,4.019,18.88,1111122 
DISL,ioos:station:DISL:KATA:1,2012-04-01T04:00:00Z,30.2583,-88.2131,3.997,18.32,1111122 
DISL,ioos:station:DISL:KATA:1,2012-04-01T04:30:00Z,30.2583,-88.2131,3.958,17.71,1111122 
DISL,ioos:station:DISL:KATA:1,2012-04-01T05:00:00Z,30.2583,-88.2131,3.939,17.39,1111122 
DISL,ioos:station:DISL:KATA:1,2012-04-01T05:30:00Z,30.2583,-88.2131,3.904,16.31,1111122 
DISL,ioos:station:DISL:KATA:1,2012-04-01T06:00:00Z,30.2583,-88.2131,3.859,15.19,1111122 
DISL,ioos:station:DISL:KATA:1,2012-04-01T06:30:00Z,30.2583,-88.2131,3.833,14.51,1111122 
DISL,ioos:station:DISL:KATA:1,2012-04-01T07:00:00Z,30.2583,-88.2131,3.795,14.13,1111122 
DISL,ioos:station:DISL:KATA:1,2012-04-01T07:30:00Z,30.2583,-88.2131,3.769,13.63,1111122 
DISL,ioos:station:DISL:KATA:1,2012-04-01T08:00:00Z,30.2583,-88.2131,3.763,14.16,1111122 
DISL,ioos:station:DISL:KATA:1,2012-04-01T08:30:00Z,30.2583,-88.2131,3.757,15.02,1111122 
DISL,ioos:station:DISL:KATA:1,2012-04-01T09:00:00Z,30.2583,-88.2131,3.754,16.94,1111122 
DISL,ioos:station:DISL:KATA:1,2012-04-01T09:30:00Z,30.2583,-88.2131,3.774,17.05,1111122 
DISL,ioos:station:DISL:KATA:1,2012-04-01T10:00:00Z,30.2583,-88.2131,3.786,17.19,1111122 
DISL,ioos:station:DISL:KATA:1,2012-04-01T10:30:00Z,30.2583,-88.2131,3.8,17.15,1111122 
DISL,ioos:station:DISL:KATA:1,2012-04-01T11:00:00Z,30.2583,-88.2131,3.809,17.48,1111122 
DISL,ioos:station:DISL:KATA:1,2012-04-01T11:30:00Z,30.2583,-88.2131,3.83,17.66,1111122 
DISL,ioos:station:DISL:KATA:1,2012-04-01T12:00:00Z,30.2583,-88.2131,3.842,17.77,1111122 
DISL,ioos:station:DISL:KATA:1,2012-04-01T12:30:00Z,30.2583,-88.2131,3.854,17.15,1111122 
DISL,ioos:station:DISL:KATA:1,2012-04-01T13:00:00Z,30.2583,-88.2131,3.879,17.12,1111122 
DISL,ioos:station:DISL:KATA:1,2012-04-01T13:30:00Z,30.2583,-88.2131,3.887,17.52,1111122 
DISL,ioos:station:DISL:KATA:1,2012-04-01T14:00:00Z,30.2583,-88.2131,3.897,17.68,1111122 
DISL,ioos:station:DISL:KATA:1,2012-04-01T14:30:00Z,30.2583,-88.2131,3.905,17.77,1111122 
DISL,ioos:station:DISL:KATA:1,2012-04-01T15:00:00Z,30.2583,-88.2131,3.921,17.95,1111122 
DISL,ioos:station:DISL:KATA:1,2012-04-01T15:30:00Z,30.2583,-88.2131,3.934,18.41,1111122 
DISL,ioos:station:DISL:KATA:1,2012-04-01T16:00:00Z,30.2583,-88.2131,3.953,18.65,1111122 
DISL,ioos:station:DISL:KATA:1,2012-04-01T16:30:00Z,30.2583,-88.2131,3.975,18.92,1111122 
DISL,ioos:station:DISL:KATA:1,2012-04-01T17:00:00Z,30.2583,-88.2131,4.004,18.94,1111122 
DISL,ioos:station:DISL:KATA:1,2012-04-01T17:30:00Z,30.2583,-88.2131,4.029,19.24,1111122 
DISL,ioos:station:DISL:KATA:1,2012-04-01T18:00:00Z,30.2583,-88.2131,4.045,19.12,1111122 
DISL,ioos:station:DISL:KATA:1,2012-04-01T18:30:00Z,30.2583,-88.2131,4.055,18.5,1111122 
DISL,ioos:station:DISL:KATA:1,2012-04-01T19:00:00Z,30.2583,-88.2131,4.05,18.49,1111122 
DISL,ioos:station:DISL:KATA:1,2012-04-01T19:30:00Z,30.2583,-88.2131,4.046,18.39,1111122 
DISL,ioos:station:DISL:KATA:1,2012-04-01T20:00:00Z,30.2583,-88.2131,4.041,18.97,1111122 
DISL,ioos:station:DISL:KATA:1,2012-04-01T20:30:00Z,30.2583,-88.2131,4.049,17.64,1111122 
DISL,ioos:station:DISL:KATA:1,2012-04-01T21:00:00Z,30.2583,-88.2131,4.055,17.81,1111122 
DISL,ioos:station:DISL:KATA:1,2012-04-01T21:30:00Z,30.2583,-88.2131,4.063,18.81,1111122 
DISL,ioos:station:DISL:KATA:1,2012-04-01T22:00:00Z,30.2583,-88.2131,4.083,18.67,1111122 
DISL,ioos:station:DISL:KATA:1,2012-04-01T22:30:00Z,30.2583,-88.2131,4.097,18.54,1111122 
DISL,ioos:station:DISL:KATA:1,2012-04-01T23:00:00Z,30.2583,-88.2131,4.119,18.31,1111122 
DISL,ioos:station:DISL:KATA:1,2012-04-01T23:30:00Z,30.2583,-88.2131,4.122,18.17,1111122 
DISL,ioos:station:DISL:KATA:1,2012-04-02T00:00:00Z,30.2583,-88.2131,4.112,17.64,1111122 
DISL,ioos:station:DISL:KATA:1,2012-04-02T00:30:00Z,30.2583,-88.2131,4.109,17.5,1111122 
DISL,ioos:station:DISL:KATA:1,2012-04-02T01:00:00Z,30.2583,-88.2131,4.081,17.16,1111122 
DISL,ioos:station:DISL:KATA:1,2012-04-02T01:30:00Z,30.2583,-88.2131,4.062,16.73,1111122 
DISL,ioos:station:DISL:KATA:1,2012-04-02T02:00:00Z,30.2583,-88.2131,4.05,16.94,1111122 
DISL,ioos:station:DISL:KATA:1,2012-04-02T02:30:00Z,30.2583,-88.2131,4.032,16.57,1111122 
DISL,ioos:station:DISL:KATA:1,2012-04-02T03:00:00Z,30.2583,-88.2131,4.021,16.76,1111122 
DISL,ioos:station:DISL:KATA:1,2012-04-02T03:30:00Z,30.2583,-88.2131,3.993,16.08,1111122 
DISL,ioos:station:DISL:KATA:1,2012-04-02T04:00:00Z,30.2583,-88.2131,3.967,15.62,1111122 
DISL,ioos:station:DISL:KATA:1,2012-04-02T04:30:00Z,30.2583,-88.2131,3.947,14.92,1111122 
DISL,ioos:station:DISL:KATA:1,2012-04-02T05:00:00Z,30.2583,-88.2131,3.926,15.0,1111122 
DISL,ioos:station:DISL:KATA:1,2012-04-02T05:30:00Z,30.2583,-88.2131,3.9,15.47,1111122 
DISL,ioos:station:DISL:KATA:1,2012-04-02T06:00:00Z,30.2583,-88.2131,3.884,15.82,1111122 
DISL,ioos:station:DISL:KATA:1,2012-04-02T06:30:00Z,30.2583,-88.2131,3.856,15.8,1111122 
DISL,ioos:station:DISL:KATA:1,2012-04-02T07:00:00Z,30.2583,-88.2131,3.84,15.62,1111122 
DISL,ioos:station:DISL:KATA:1,2012-04-02T07:30:00Z,30.2583,-88.2131,3.817,15.36,1111122 
DISL,ioos:station:DISL:KATA:1,2012-04-02T08:00:00Z,30.2583,-88.2131,3.803,15.29,1111122 
DISL,ioos:station:DISL:KATA:1,2012-04-02T08:30:00Z,30.2583,-88.2131,3.797,14.87,1111122 
DISL,ioos:station:DISL:KATA:1,2012-04-02T09:00:00Z,30.2583,-88.2131,3.803,15.61,1111122 
DISL,ioos:station:DISL:KATA:1,2012-04-02T09:30:00Z,30.2583,-88.2131,3.8,15.52,1111122 
DISL,ioos:station:DISL:KATA:1,2012-04-02T10:00:00Z,30.2583,-88.2131,3.804,15.04,1111122 
DISL,ioos:station:DISL:KATA:1,2012-04-02T10:30:00Z,30.2583,-88.2131,3.823,15.08,1111122 
DISL,ioos:station:DISL:KATA:1,2012-04-02T11:00:00Z,30.2583,-88.2131,3.829,15.05,1111122 
DISL,ioos:station:DISL:KATA:1,2012-04-02T11:30:00Z,30.2583,-88.2131,3.828,15.11,1111122 
DISL,ioos:station:DISL:KATA:1,2012-04-02T12:00:00Z,30.2583,-88.2131,3.835,14.98,1111122 
DISL,ioos:station:DISL:KATA:1,2012-04-02T12:30:00Z,30.2583,-88.2131,3.846,15.29,1111122 
DISL,ioos:station:DISL:KATA:1,2012-04-02T13:00:00Z,30.2583,-88.2131,3.868,15.41,1111122 
DISL,ioos:station:DISL:KATA:1,2012-04-02T13:30:00Z,30.2583,-88.2131,3.891,15.45,1111122 
DISL,ioos:station:DISL:KATA:1,2012-04-02T14:00:00Z,30.2583,-88.2131,3.916,15.46,1111122 
DISL,ioos:station:DISL:KATA:1,2012-04-02T14:30:00Z,30.2583,-88.2131,3.941,15.47,1111122 
DISL,ioos:station:DISL:KATA:1,2012-04-02T15:00:00Z,30.2583,-88.2131,3.96,15.47,1111122 
DISL,ioos:station:DISL:KATA:1,2012-04-02T15:30:00Z,30.2583,-88.2131,3.962,15.55,1111122 
DISL,ioos:station:DISL:KATA:1,2012-04-02T16:00:00Z,30.2583,-88.2131,3.961,15.5,1111122 
DISL,ioos:station:DISL:KATA:1,2012-04-02T16:30:00Z,30.2583,-88.2131,3.961,15.6,1111122 
DISL,ioos:station:DISL:KATA:1,2012-04-02T17:00:00Z,30.2583,-88.2131,3.959,15.65,1111122 
DISL,ioos:station:DISL:KATA:1,2012-04-02T17:30:00Z,30.2583,-88.2131,3.973,15.72,1111122 
DISL,ioos:station:DISL:KATA:1,2012-04-02T18:00:00Z,30.2583,-88.2131,3.981,15.8,1111122 
DISL,ioos:station:DISL:KATA:1,2012-04-02T18:30:00Z,30.2583,-88.2131,3.995,15.85,1111122 
DISL,ioos:station:DISL:KATA:1,2012-04-02T19:00:00Z,30.2583,-88.2131,4.003,15.79,1111122 
DISL,ioos:station:DISL:KATA:1,2012-04-02T19:30:00Z,30.2583,-88.2131,4.01,15.8,1111122 
DISL,ioos:station:DISL:KATA:1,2012-04-02T20:00:00Z,30.2583,-88.2131,4.021,15.5,1111122 
DISL,ioos:station:DISL:KATA:1,2012-04-02T20:30:00Z,30.2583,-88.2131,4.044,15.57,1111122 
DISL,ioos:station:DISL:KATA:1,2012-04-02T21:00:00Z,30.2583,-88.2131,4.077,15.71,1111122 
DISL,ioos:station:DISL:KATA:1,2012-04-02T21:30:00Z,30.2583,-88.2131,4.089,16.21,1111122 
DISL,ioos:station:DISL:KATA:1,2012-04-02T22:00:00Z,30.2583,-88.2131,4.116,16.4,1111122 
DISL,ioos:station:DISL:KATA:1,2012-04-02T22:30:00Z,30.2583,-88.2131,4.147,16.38,1111122 
DISL,ioos:station:DISL:KATA:1,2012-04-02T23:00:00Z,30.2583,-88.2131,4.172,16.47,1111122 
DISL,ioos:station:DISL:KATA:1,2012-04-02T23:30:00Z,30.2583,-88.2131,4.183,16.56,1111122 
DISL,ioos:station:DISL:KATA:1,2012-04-03T00:00:00Z,30.2583,-88.2131,4.187,16.47,1111122 
DISL,ioos:station:DISL:KATA:1,2012-04-03T00:30:00Z,30.2583,-88.2131,4.184,16.55,1111122 
DISL,ioos:station:DISL:KATA:1,2012-04-03T01:00:00Z,30.2583,-88.2131,4.172,16.24,1111122 
DISL,ioos:station:DISL:KATA:1,2012-04-03T01:30:00Z,30.2583,-88.2131,4.154,16.28,1111122 
DISL,ioos:station:DISL:KATA:1,2012-04-03T02:00:00Z,30.2583,-88.2131,4.132,16.09,1111122 
DISL,ioos:station:DISL:KATA:1,2012-04-03T02:30:00Z,30.2583,-88.2131,4.108,15.78,1111122 
DISL,ioos:station:DISL:KATA:1,2012-04-03T03:00:00Z,30.2583,-88.2131,4.137,15.76,1111122 
DISL,ioos:station:DISL:KATA:1,2012-04-03T03:30:00Z,30.2583,-88.2131,4.181,15.95,1111122 
DISL,ioos:station:DISL:KATA:1,2012-04-03T04:00:00Z,30.2583,-88.2131,4.16,15.61,1111122 
DISL,ioos:station:DISL:KATA:1,2012-04-03T04:30:00Z,30.2583,-88.2131,4.012,14.18,1111122 
DISL,ioos:station:DISL:KATA:1,2012-04-03T05:00:00Z,30.2583,-88.2131,3.888,13.99,1111122 
DISL,ioos:station:DISL:KATA:1,2012-04-03T05:30:00Z,30.2583,-88.2131,3.818,13.94,1111122 
DISL,ioos:station:DISL:KATA:1,2012-04-03T06:00:00Z,30.2583,-88.2131,3.785,13.79,1111122 
DISL,ioos:station:DISL:KATA:1,2012-04-03T06:30:00Z,30.2583,-88.2131,3.807,13.58,1111122 
DISL,ioos:station:DISL:KATA:1,2012-04-03T07:00:00Z,30.2583,-88.2131,3.75,13.46,1111122 
DISL,ioos:station:DISL:KATA:1,2012-04-03T07:30:00Z,30.2583,-88.2131,3.783,13.33,1111122 
DISL,ioos:station:DISL:KATA:1,2012-04-03T08:00:00Z,30.2583,-88.2131,3.795,13.21,1111122 
DISL,ioos:station:DISL:KATA:1,2012-04-03T08:30:00Z,30.2583,-88.2131,3.738,13.19,1111122 
DISL,ioos:station:DISL:KATA:1,2012-04-03T09:00:00Z,30.2583,-88.2131,3.856,13.23,1111122 
DISL,ioos:station:DISL:KATA:1,2012-04-03T09:30:00Z,30.2583,-88.2131,3.92,13.32,1111122 
DISL,ioos:station:DISL:KATA:1,2012-04-03T10:00:00Z,30.2583,-88.2131,3.964,13.35,1111122 
DISL,ioos:station:DISL:KATA:1,2012-04-03T10:30:00Z,30.2583,-88.2131,3.931,13.34,1111122 
DISL,ioos:station:DISL:KATA:1,2012-04-03T11:00:00Z,30.2583,-88.2131,3.848,13.36,1111122 
DISL,ioos:station:DISL:KATA:1,2012-04-03T11:30:00Z,30.2583,-88.2131,3.862,13.37,1111122 
DISL,ioos:station:DISL:KATA:1,2012-04-03T12:00:00Z,30.2583,-88.2131,3.885,13.3,1111122 
DISL,ioos:station:DISL:KATA:1,2012-04-03T12:30:00Z,30.2583,-88.2131,3.903,13.27,1111122 
DISL,ioos:station:DISL:KATA:1,2012-04-03T13:00:00Z,30.2583,-88.2131,3.921,13.17,1111122 
DISL,ioos:station:DISL:KATA:1,2012-04-03T13:30:00Z,30.2583,-88.2131,3.953,13.12,1111122 
DISL,ioos:station:DISL:KATA:1,2012-04-03T14:00:00Z,30.2583,-88.2131,4.009,13.09,1111122 
DISL,ioos:station:DISL:KATA:1,2012-04-03T14:30:00Z,30.2583,-88.2131,4.056,13.1,1111122 
DISL,ioos:station:DISL:KATA:1,2012-04-03T15:00:00Z,30.2583,-88.2131,4.061,14.18,1111122 
DISL,ioos:station:DISL:KATA:1,2012-04-03T15:30:00Z,30.2583,-88.2131,4.074,14.21,1111122 
DISL,ioos:station:DISL:KATA:1,2012-04-03T16:00:00Z,30.2583,-88.2131,4.075,14.24,1111122 
DISL,ioos:station:DISL:KATA:1,2012-04-03T16:30:00Z,30.2583,-88.2131,4.063,14.42,1111122 
DISL,ioos:station:DISL:KATA:1,2012-04-03T17:00:00Z,30.2583,-88.2131,4.048,14.48,1111122 
DISL,ioos:station:DISL:KATA:1,2012-04-03T17:30:00Z,30.2583,-88.2131,4.043,14.56,1111122 
DISL,ioos:station:DISL:KATA:1,2012-04-03T18:00:00Z,30.2583,-88.2131,4.003,14.59,1111122 
DISL,ioos:station:DISL:KATA:1,2012-04-03T18:30:00Z,30.2583,-88.2131,3.983,14.6,1111122 
DISL,ioos:station:DISL:KATA:1,2012-04-03T19:00:00Z,30.2583,-88.2131,3.964,14.6,1111122 
DISL,ioos:station:DISL:KATA:1,2012-04-03T19:30:00Z,30.2583,-88.2131,3.95,14.61,1111122 
DISL,ioos:station:DISL:KATA:1,2012-04-03T20:00:00Z,30.2583,-88.2131,3.928,14.57,1111122 
DISL,ioos:station:DISL:KATA:1,2012-04-03T20:30:00Z,30.2583,-88.2131,3.914,14.56,1111122 
DISL,ioos:station:DISL:KATA:1,2012-04-03T21:00:00Z,30.2583,-88.2131,3.925,14.55,1111122 
DISL,ioos:station:DISL:KATA:1,2012-04-03T21:30:00Z,30.2583,-88.2131,3.946,14.55,1111122 
DISL,ioos:station:DISL:KATA:1,2012-04-03T22:00:00Z,30.2583,-88.2131,3.961,14.57,1111122 
DISL,ioos:station:DISL:KATA:1,2012-04-03T22:30:00Z,30.2583,-88.2131,3.986,14.56,1111122 
DISL,ioos:station:DISL:KATA:1,2012-04-03T23:00:00Z,30.2583,-88.2131,3.981,14.58,1111122 
DISL,ioos:station:DISL:KATA:1,2012-04-03T23:30:00Z,30.2583,-88.2131,3.981,14.59,1111122 
DISL,ioos:station:DISL:KATA:1,2012-04-04T00:00:00Z,30.2583,-88.2131,3.982,14.6,1111122 
DISL,ioos:station:DISL:KATA:1,2012-04-04T00:30:00Z,30.2583,-88.2131,3.988,14.61,1111122 
DISL,ioos:station:DISL:KATA:1,2012-04-04T01:00:00Z,30.2583,-88.2131,4.0,14.6,1111122 
DISL,ioos:station:DISL:KATA:1,2012-04-04T01:30:00Z,30.2583,-88.2131,4.017,14.6,1111122 
DISL,ioos:station:DISL:KATA:1,2012-04-04T02:00:00Z,30.2583,-88.2131,4.031,14.58,1111122 
DISL,ioos:station:DISL:KATA:1,2012-04-04T02:30:00Z,30.2583,-88.2131,4.036,14.57,1111122 
DISL,ioos:station:DISL:KATA:1,2012-04-04T03:00:00Z,30.2583,-88.2131,4.032,14.56,1111122 
DISL,ioos:station:DISL:KATA:1,2012-04-04T03:30:00Z,30.2583,-88.2131,4.039,14.54,1111122 
DISL,ioos:station:DISL:KATA:1,2012-04-04T04:00:00Z,30.2583,-88.2131,4.041,14.55,1111122 
DISL,ioos:station:DISL:KATA:1,2012-04-04T04:30:00Z,30.2583,-88.2131,4.03,14.55,1111122 
DISL,ioos:station:DISL:KATA:1,2012-04-04T05:00:00Z,30.2583,-88.2131,4.028,14.58,1111122 
DISL,ioos:station:DISL:KATA:1,2012-04-04T05:30:00Z,30.2583,-88.2131,3.995,14.6,1111122 
DISL,ioos:station:DISL:KATA:1,2012-04-04T06:00:00Z,30.2583,-88.2131,3.982,14.61,1111122 
DISL,ioos:station:DISL:KATA:1,2012-04-04T06:30:00Z,30.2583,-88.2131,3.96,14.54,1111122 
DISL,ioos:station:DISL:KATA:1,2012-04-04T07:00:00Z,30.2583,-88.2131,3.92,14.48,1111122 
DISL,ioos:station:DISL:KATA:1,2012-04-04T07:30:00Z,30.2583,-88.2131,3.896,14.52,1111122 
DISL,ioos:station:DISL:KATA:1,2012-04-04T08:00:00Z,30.2583,-88.2131,3.902,14.43,1111122 
DISL,ioos:station:DISL:KATA:1,2012-04-04T08:30:00Z,30.2583,-88.2131,4.219,14.22,1111122 
DISL,ioos:station:DISL:KATA:1,2012-04-04T09:00:00Z,30.2583,-88.2131,3.991,14.26,1111122 
DISL,ioos:station:DISL:KATA:1,2012-04-04T09:30:00Z,30.2583,-88.2131,3.898,14.21,1111122 
DISL,ioos:station:DISL:KATA:1,2012-04-04T10:00:00Z,30.2583,-88.2131,3.744,14.16,1111122 
DISL,ioos:station:DISL:KATA:1,2012-04-04T10:30:00Z,30.2583,-88.2131,3.726,14.11,1111122 
DISL,ioos:station:DISL:KATA:1,2012-04-04T11:00:00Z,30.2583,-88.2131,3.846,14.1,1111122 
DISL,ioos:station:DISL:KATA:1,2012-04-04T11:30:00Z,30.2583,-88.2131,3.844,14.03,1111122 
DISL,ioos:station:DISL:KATA:1,2012-04-04T12:00:00Z,30.2583,-88.2131,3.854,13.93,1111122 
DISL,ioos:station:DISL:KATA:1,2012-04-04T12:30:00Z,30.2583,-88.2131,3.842,13.79,1111122 
DISL,ioos:station:DISL:KATA:1,2012-04-04T13:00:00Z,30.2583,-88.2131,3.937,13.73,1111122 
DISL,ioos:station:DISL:KATA:1,2012-04-04T13:30:00Z,30.2583,-88.2131,3.971,13.81,1111122 
DISL,ioos:station:DISL:KATA:1,2012-04-04T14:00:00Z,30.2583,-88.2131,3.978,13.97,1111122 
DISL,ioos:station:DISL:KATA:1,2012-04-04T14:30:00Z,30.2583,-88.2131,4.008,14.0,1111122 
DISL,ioos:station:DISL:KATA:1,2012-04-04T15:00:00Z,30.2583,-88.2131,4.046,14.03,1111122 
DISL,ioos:station:DISL:KATA:1,2012-04-04T15:30:00Z,30.2583,-88.2131,4.072,14.11,1111122 
DISL,ioos:station:DISL:KATA:1,2012-04-04T16:00:00Z,30.2583,-88.2131,4.065,14.22,1111122 
DISL,ioos:station:DISL:KATA:1,2012-04-04T16:30:00Z,30.2583,-88.2131,3.985,14.26,1111122 
DISL,ioos:station:DISL:KATA:1,2012-04-04T17:00:00Z,30.2583,-88.2131,3.876,14.22,1111122 
DISL,ioos:station:DISL:KATA:1,2012-04-04T17:30:00Z,30.2583,-88.2131,3.746,14.1,1111122 
DISL,ioos:station:DISL:KATA:1,2012-04-04T18:00:00Z,30.2583,-88.2131,3.624,13.74,1111122 
DISL,ioos:station:DISL:KATA:1,2012-04-04T18:30:00Z,30.2583,-88.2131,3.661,13.46,1111122 
DISL,ioos:station:DISL:KATA:1,2012-04-04T19:00:00Z,30.2583,-88.2131,3.746,13.41,1111122 
DISL,ioos:station:DISL:KATA:1,2012-04-04T19:30:00Z,30.2583,-88.2131,3.854,13.45,1111122 
DISL,ioos:station:DISL:KATA:1,2012-04-04T20:00:00Z,30.2583,-88.2131,3.991,13.89,1111122 
DISL,ioos:station:DISL:KATA:1,2012-04-04T20:30:00Z,30.2583,-88.2131,4.115,14.03,1111122 
DISL,ioos:station:DISL:KATA:1,2012-04-04T21:00:00Z,30.2583,-88.2131,4.229,14.3,1111122 
DISL,ioos:station:DISL:KATA:1,2012-04-04T21:30:00Z,30.2583,-88.2131,4.24,14.32,1111122 
DISL,ioos:station:DISL:KATA:1,2012-04-04T22:00:00Z,30.2583,-88.2131,4.255,14.4,1111122 
DISL,ioos:station:DISL:KATA:1,2012-04-04T22:30:00Z,30.2583,-88.2131,4.212,14.43,1111122 
DISL,ioos:station:DISL:KATA:1,2012-04-04T23:00:00Z,30.2583,-88.2131,4.142,14.42,1111122 
DISL,ioos:station:DISL:KATA:1,2012-04-04T23:30:00Z,30.2583,-88.2131,4.068,14.42,1111122 
DISL,ioos:station:DISL:KATA:1,2012-04-05T00:00:00Z,30.2583,-88.2131,3.988,14.42,1111122 
DISL,ioos:station:DISL:KATA:1,2012-04-05T00:30:00Z,30.2583,-88.2131,3.99,14.43,1111122 
DISL,ioos:station:DISL:KATA:1,2012-04-05T01:00:00Z,30.2583,-88.2131,4.053,14.45,1111122 
DISL,ioos:station:DISL:KATA:1,2012-04-05T01:30:00Z,30.2583,-88.2131,4.058,14.45,1111122 
DISL,ioos:station:DISL:KATA:1,2012-04-05T02:00:00Z,30.2583,-88.2131,4.074,14.46,1111122 
DISL,ioos:station:DISL:KATA:1,2012-04-05T02:30:00Z,30.2583,-88.2131,4.036,14.46,1111122 
DISL,ioos:station:DISL:KATA:1,2012-04-05T03:00:00Z,30.2583,-88.2131,4.015,14.53,1111122 
DISL,ioos:station:DISL:KATA:1,2012-04-05T03:30:00Z,30.2583,-88.2131,3.985,14.54,1111122 
DISL,ioos:station:DISL:KATA:1,2012-04-05T04:00:00Z,30.2583,-88.2131,3.972,14.53,1111122 
DISL,ioos:station:DISL:KATA:1,2012-04-05T04:30:00Z,30.2583,-88.2131,4.014,14.47,1111122 
DISL,ioos:station:DISL:KATA:1,2012-04-05T05:00:00Z,30.2583,-88.2131,4.031,14.5,1111122 
DISL,ioos:station:DISL:KATA:1,2012-04-05T05:30:00Z,30.2583,-88.2131,4.057,14.52,1111122 
DISL,ioos:station:DISL:KATA:1,2012-04-05T06:00:00Z,30.2583,-88.2131,4.06,14.53,1111122 
DISL,ioos:station:DISL:KATA:1,2012-04-05T06:30:00Z,30.2583,-88.2131,4.005,14.53,1111122 
DISL,ioos:station:DISL:KATA:1,2012-04-05T07:00:00Z,30.2583,-88.2131,3.964,14.53,1111122 
DISL,ioos:station:DISL:KATA:1,2012-04-05T07:30:00Z,30.2583,-88.2131,3.921,14.53,1111122 
DISL,ioos:station:DISL:KATA:1,2012-04-05T08:00:00Z,30.2583,-88.2131,3.934,14.55,1111122 
DISL,ioos:station:DISL:KATA:1,2012-04-05T08:30:00Z,30.2583,-88.2131,3.932,14.54,1111122 
DISL,ioos:station:DISL:KATA:1,2012-04-05T09:00:00Z,30.2583,-88.2131,3.964,14.55,1111122 
DISL,ioos:station:DISL:KATA:1,2012-04-05T09:30:00Z,30.2583,-88.2131,4.0,14.58,1111122 
DISL,ioos:station:DISL:KATA:1,2012-04-05T10:00:00Z,30.2583,-88.2131,3.999,14.58,1111122 
DISL,ioos:station:DISL:KATA:1,2012-04-05T10:30:00Z,30.2583,-88.2131,3.997,14.59,1111122 
DISL,ioos:station:DISL:KATA:1,2012-04-05T11:00:00Z,30.2583,-88.2131,3.994,14.63,1111122 
DISL,ioos:station:DISL:KATA:1,2012-04-05T11:30:00Z,30.2583,-88.2131,4.018,14.61,1111122 
DISL,ioos:station:DISL:KATA:1,2012-04-05T12:00:00Z,30.2583,-88.2131,4.06,14.64,1111122 
DISL,ioos:station:DISL:KATA:1,2012-04-05T12:30:00Z,30.2583,-88.2131,4.068,14.65,1111122 
DISL,ioos:station:DISL:KATA:1,2012-04-05T13:00:00Z,30.2583,-88.2131,4.08,14.67,1111122 
DISL,ioos:station:DISL:KATA:1,2012-04-05T13:30:00Z,30.2583,-88.2131,4.096,14.69,1111122 
DISL,ioos:station:DISL:KATA:1,2012-04-05T14:00:00Z,30.2583,-88.2131,4.097,14.7,1111122 
DISL,ioos:station:DISL:KATA:1,2012-04-05T14:30:00Z,30.2583,-88.2131,4.065,14.68,1111122 
DISL,ioos:station:DISL:KATA:1,2012-04-05T15:00:00Z,30.2583,-88.2131,4.059,14.68,1111122 
DISL,ioos:station:DISL:KATA:1,2012-04-05T15:30:00Z,30.2583,-88.2131,4.07,14.65,1111122 
DISL,ioos:station:DISL:KATA:1,2012-04-05T16:00:00Z,30.2583,-88.2131,4.069,14.61,1111122 
DISL,ioos:station:DISL:KATA:1,2012-04-05T16:30:00Z,30.2583,-88.2131,4.037,14.56,1111122 
DISL,ioos:station:DISL:KATA:1,2012-04-05T17:00:00Z,30.2583,-88.2131,4.043,14.64,1111122 
DISL,ioos:station:DISL:KATA:1,2012-04-05T17:30:00Z,30.2583,-88.2131,4.071,14.71,1111122 
DISL,ioos:station:DISL:KATA:1,2012-04-05T18:00:00Z,30.2583,-88.2131,4.087,14.72,1111122 
DISL,ioos:station:DISL:KATA:1,2012-04-05T18:30:00Z,30.2583,-88.2131,4.071,14.73,1111122 
DISL,ioos:station:DISL:KATA:1,2012-04-05T19:00:00Z,30.2583,-88.2131,4.06,14.72,1111122 
DISL,ioos:station:DISL:KATA:1,2012-04-05T19:30:00Z,30.2583,-88.2131,4.046,14.63,1111122 
DISL,ioos:station:DISL:KATA:1,2012-04-05T20:00:00Z,30.2583,-88.2131,4.008,14.55,1111122 
DISL,ioos:station:DISL:KATA:1,2012-04-05T20:30:00Z,30.2583,-88.2131,3.976,14.57,1111122 
DISL,ioos:station:DISL:KATA:1,2012-04-05T21:00:00Z,30.2583,-88.2131,3.924,14.56,1111122 
DISL,ioos:station:DISL:KATA:1,2012-04-05T21:30:00Z,30.2583,-88.2131,3.897,14.55,1111122 
DISL,ioos:station:DISL:KATA:1,2012-04-05T22:00:00Z,30.2583,-88.2131,3.874,14.55,1111122 
DISL,ioos:station:DISL:KATA:1,2012-04-05T22:30:00Z,30.2583,-88.2131,3.874,14.51,1111122 
DISL,ioos:station:DISL:KATA:1,2012-04-05T23:00:00Z,30.2583,-88.2131,3.9,14.44,1111122 
DISL,ioos:station:DISL:KATA:1,2012-04-05T23:30:00Z,30.2583,-88.2131,3.905,14.38,1111122 
DISL,ioos:station:DISL:KATA:1,2012-04-06T00:00:00Z,30.2583,-88.2131,3.894,14.29,1111122 
DISL,ioos:station:DISL:KATA:1,2012-04-06T00:30:00Z,30.2583,-88.2131,3.938,14.28,1111122 
DISL,ioos:station:DISL:KATA:1,2012-04-06T01:00:00Z,30.2583,-88.2131,3.968,14.3,1111122 
DISL,ioos:station:DISL:KATA:1,2012-04-06T01:30:00Z,30.2583,-88.2131,3.947,14.26,1111122 
DISL,ioos:station:DISL:KATA:1,2012-04-06T02:00:00Z,30.2583,-88.2131,3.903,14.2,1111122 
DISL,ioos:station:DISL:KATA:1,2012-04-06T02:30:00Z,30.2583,-88.2131,3.867,14.11,1111122 
DISL,ioos:station:DISL:KATA:1,2012-04-06T03:00:00Z,30.2583,-88.2131,3.891,14.23,1111122 
DISL,ioos:station:DISL:KATA:1,2012-04-06T03:30:00Z,30.2583,-88.2131,3.918,14.25,1111122 
DISL,ioos:station:DISL:KATA:1,2012-04-06T04:00:00Z,30.2583,-88.2131,3.956,14.31,1111122 
DISL,ioos:station:DISL:KATA:1,2012-04-06T04:30:00Z,30.2583,-88.2131,3.975,14.22,1111122 
DISL,ioos:station:DISL:KATA:1,2012-04-06T05:00:00Z,30.2583,-88.2131,3.963,14.17,1111122 
DISL,ioos:station:DISL:KATA:1,2012-04-06T05:30:00Z,30.2583,-88.2131,3.968,14.15,1111122 
DISL,ioos:station:DISL:KATA:1,2012-04-06T06:00:00Z,30.2583,-88.2131,3.948,14.12,1111122 
DISL,ioos:station:DISL:KATA:1,2012-04-06T06:30:00Z,30.2583,-88.2131,3.944,14.1,1111122 
DISL,ioos:station:DISL:KATA:1,2012-04-06T07:00:00Z,30.2583,-88.2131,3.922,14.11,1111122 
DISL,ioos:station:DISL:KATA:1,2012-04-06T07:30:00Z,30.2583,-88.2131,3.892,14.1,1111122 
DISL,ioos:station:DISL:KATA:1,2012-04-06T08:00:00Z,30.2583,-88.2131,3.871,14.08,1111122 
DISL,ioos:station:DISL:KATA:1,2012-04-06T08:30:00Z,30.2583,-88.2131,3.874,14.01,1111122 
DISL,ioos:station:DISL:KATA:1,2012-04-06T09:00:00Z,30.2583,-88.2131,3.901,13.87,1111122 
DISL,ioos:station:DISL:KATA:1,2012-04-06T09:30:00Z,30.2583,-88.2131,3.928,13.84,1111122 
DISL,ioos:station:DISL:KATA:1,2012-04-06T10:00:00Z,30.2583,-88.2131,3.964,13.85,1111122 
DISL,ioos:station:DISL:KATA:1,2012-04-06T10:30:00Z,30.2583,-88.2131,3.991,13.86,1111122 
DISL,ioos:station:DISL:KATA:1,2012-04-06T11:00:00Z,30.2583,-88.2131,4.006,13.88,1111122 
DISL,ioos:station:DISL:KATA:1,2012-04-06T11:30:00Z,30.2583,-88.2131,4.02,13.92,1111122 
DISL,ioos:station:DISL:KATA:1,2012-04-06T12:00:00Z,30.2583,-88.2131,4.028,13.85,1111122 
DISL,ioos:station:DISL:KATA:1,2012-04-06T12:30:00Z,30.2583,-88.2131,4.033,13.89,1111122 
DISL,ioos:station:DISL:KATA:1,2012-04-06T13:00:00Z,30.2583,-88.2131,4.05,13.94,1111122 
DISL,ioos:station:DISL:KATA:1,2012-04-06T13:30:00Z,30.2583,-88.2131,4.068,14.11,1111122 
DISL,ioos:station:DISL:KATA:1,2012-04-06T14:00:00Z,30.2583,-88.2131,4.095,14.18,1111122 